{"data":{"norad_id":66779,"intl_designator":"2025-276DU","name":"FOSSASAT-2E22","alt_names":[],"object_type":"PAYLOAD","status":"ACTIVE","operator":null,"country":"SPN","launch_date":"2025-11-28","launch_site_code":"AFWTR","launch_vehicle":null,"mission":null,"orbit_class":"UNKNOWN","rcs_meters":null,"size_class":null,"mass_kg":null,"dimensions":null,"purposes":[],"wikipedia_slug":null,"has_3d_model":false,"image_url":null,"decayed_at":null,"tle_current":{"epoch":"2026-05-25T03:04:29.997408Z","epoch_age_seconds":70933,"freshness":"FRESH","line1":"1 66779U 25276DU  26145.12812497  .00004458  00000+0  22088-3 0  9992","line2":"2 66779  97.4188 218.7726 0004763 201.4341 158.6694 15.18260365 26905","mean_motion":15.18260365,"eccentricity":0.0004763,"inclination_deg":97.4188,"raan_deg":218.7726,"arg_perigee_deg":201.4341,"mean_anomaly_deg":158.6694,"bstar":0.00022088,"rev_number":2690,"period_min":94.84539234481,"perigee_km":507.81674551319,"apogee_km":514.3794308582,"semimajor_km":6889.2350881857,"source":"CELESTRAK","updated_at":"2026-05-25T13:38:06.479570Z"}}}